Location: Nairn
(57.5833°N, 3.8667°W)
Time: 03:55:00
(UTC+00:00)

UNK - Pass Details

Date: 12 December 2021
Orbit: 666 x 686 km, 98.2° (Epoch: 22 January)

Event Time Altitude Azimuth Distance (km) Brightness Sun altitude
Rises 16:24:29 0° 13° (NNE) 3,032 6.7 -6.5°
Reaches altitude 10° 16:26:51 10° 5° (N) 2,111 5.9 -6.8°
Maximum altitude 16:31:03 36° 299° (WNW) 1,054 5.1 -7.3°
Drops below altitude 10° 16:35:14 10° 233° (SW) 2,093 8.0 -7.7°
Sets 16:37:34 0° 225° (SW) 3,002 9.0 -8.0°
